Volkel, Netherlands

8:12 PM CEST on May 24, 2018 (GMT +0200)
Volkel Air Base

Weather History for EHVK - May, 2014

Change the Weather History Date:

Friday, May 16, 2014

  Actual Average Record
Temperature  
Mean Temperature 51 °F -  
Max Temperature 66 °F 67 °F 84 °F (2000)
Min Temperature 36 °F 48 °F 35 °F (1999)
Degree Days  
Heating Degree Days 14    
Growing Degree Days 1 (Base 50)    
Moisture  
Dew Point 41 °F    
Average Humidity 76    
Maximum Humidity 100    
Minimum Humidity 24    
Precipitation  
Precipitation 0.00 in - - ()
Sea Level Pressure  
Sea Level Pressure 30.49 in    
Wind  
Wind Speed 3 mph ()    
Max Wind Speed 10 mph    
Max Gust Speed -    
Visibility 6.7 miles    
Events Fog    
Averages and records for this station are not official NWS values.
T = Trace of Precipitation, MM = Missing Value Source: Averaged Metar Reports

Daily Weather History Graph

Daily Weather History Graph

Search for Another Location

Airport or City:

Astronomy

May. 16, 2014 Rise Set
Actual Time 5:43 AM CEST 9:24 PM CEST
Civil Twilight 5:01 AM CEST 10:06 PM CEST
Nautical Twilight 4:04 AM CEST 11:04 PM CEST
Astronomical Twilight 2:36 AM CEST 12:36 AM CEST
Moon 11:15 PM CEST (5/16) 7:10 AM CEST (5/16)
Length of Visible Light 17h 04m
Length of Day
15h 40m
Waning Gibbous, 97% of the Moon is Illuminated
May 16
Waning Gibbous
May 21
Last Quarter
May 28
New
Jun 5
First Quarter
Jun 13
Full

Hourly Weather History & Observations

Time (CEST) Temp. Windchill Dew Point Humidity Pressure Visibility Wind Dir Wind Speed Gust Speed Precip Events Conditions
12:00 AM 44 °F - 42 °F 90% 30.60 in 19 mi North 2.2 mph - -  
12:25 AM 42.8 °F - 42.8 °F 100% 30.60 in 6.2 mi North 2.3 mph - N/A   Unknown
12:55 AM 42.8 °F - 41.0 °F 93% 30.57 in 6.2 mi NNW 2.3 mph - N/A   Unknown
1:00 AM 42 °F - 42 °F 99% 30.60 in 16 mi NNW 2.2 mph - -  
1:25 AM 41.0 °F - 41.0 °F 100% 30.57 in 6.2 mi North 2.3 mph - N/A   Unknown
1:55 AM 42.8 °F - 41.0 °F 93% 30.57 in 6.2 mi NNW 2.3 mph - N/A   Unknown
2:00 AM 42 °F - 42 °F 98% 30.59 in 11 mi NNW 2.2 mph - -   Partly Cloudy
2:25 AM 39.2 °F 37.0 °F 39.2 °F 100% 30.57 in 6.2 mi North 3.5 mph - N/A   Unknown
2:55 AM 37.4 °F 34.9 °F 37.4 °F 100% 30.57 in 6.2 mi North 3.5 mph - N/A   Unknown
3:00 AM 40 °F - 39 °F 96% 30.58 in 7 mi North 4.5 mph - -  
3:25 AM 41.0 °F - 41.0 °F 100% 30.57 in 6.2 mi NNE 2.3 mph - N/A   Unknown
3:32 AM 41.0 °F - 41.0 °F 100% 30.57 in 3.7 mi NNE 2.3 mph - N/A   Mist
3:40 AM 41.0 °F - 41.0 °F 100% 30.57 in 5.6 mi NNE 2.3 mph - N/A   Mist
3:47 AM 41.0 °F - 41.0 °F 100% 30.57 in 4.3 mi NNE 2.3 mph - N/A   Mist
3:55 AM 41.0 °F 39.0 °F 41.0 °F 100% 30.54 in - NNE 3.5 mph - N/A   Mist
4:00 AM 39 °F - 39 °F 100% 30.57 in 1 mi North 4.5 mph - -   Mist
4:04 AM 39.2 °F 35.9 °F 39.2 °F 100% 30.54 in 0.9 mi North 4.6 mph - N/A   Mist
4:08 AM 39.2 °F 35.9 °F 39.2 °F 100% 30.54 in - North 4.6 mph - N/A   Mist
4:12 AM 39.2 °F 37.0 °F 39.2 °F 100% 30.54 in - North 3.5 mph - N/A   Mist
4:13 AM 39.2 °F 37.0 °F 39.2 °F 100% 30.54 in 3.1 mi North 3.5 mph - N/A   Mist
4:25 AM 41.0 °F - 41.0 °F 100% 30.54 in 6.2 mi NNE 2.3 mph - N/A   Unknown
4:32 AM 41.0 °F - 41.0 °F 100% 30.54 in 3.7 mi NNE 2.3 mph - N/A   Mist
4:43 AM 41.0 °F - 41.0 °F 100% 30.54 in 6.2 mi NNE 2.3 mph - N/A   Unknown
4:48 AM 39.2 °F - 39.2 °F 100% 30.54 in 4.3 mi NNE 2.3 mph - N/A   Mist
4:55 AM 39.2 °F - 39.2 °F 100% 30.54 in 5.6 mi North 2.3 mph - N/A   Mist
4:59 AM 39.2 °F 37.0 °F 39.2 °F 100% 30.54 in 4.3 mi North 3.5 mph - N/A   Mist
5:00 AM 39 °F - 39 °F 100% 30.56 in 5 mi North 2.2 mph - -   Mist
5:25 AM 41.0 °F - 39.2 °F 93% 30.54 in 3.1 mi North 2.3 mph - N/A   Mist
5:31 AM 39.2 °F - 39.2 °F 100% 30.54 in - North 2.3 mph - N/A   Mist
5:42 AM 39.2 °F - 39.2 °F 100% 30.54 in - North 2.3 mph - N/A   Mist
5:47 AM 39.2 °F - 39.2 °F 100% 30.54 in 2.8 mi North 2.3 mph - N/A   Mist
5:51 AM 39.2 °F - 39.2 °F 100% 30.54 in - North 2.3 mph - N/A   Mist
5:55 AM 41.0 °F - 39.2 °F 93% 30.54 in - North 2.3 mph - N/A   Mist
5:59 AM 41.0 °F - 41.0 °F 100% 30.54 in - NNE 2.3 mph - N/A   Mist
6:00 AM 40 °F - 40 °F 100% 30.56 in 2 mi NNE 2.2 mph - -   Mist
6:05 AM 41.0 °F - 39.2 °F 93% 30.54 in 3.1 mi NNE 2.3 mph - N/A   Mist
6:09 AM 39.2 °F - 39.2 °F 100% 30.54 in - North 2.3 mph - N/A   Mist
6:13 AM 39.2 °F - 39.2 °F 100% 30.54 in 0.2 mi North 2.3 mph - N/A Fog Fog
6:17 AM 39.2 °F - 39.2 °F 100% 30.54 in 1.4 mi NNE 2.3 mph - N/A   Mist
6:25 AM 39.2 °F - 39.2 °F 100% 30.54 in 1.6 mi NE 1.2 mph - N/A   Mist
6:27 AM 37.4 °F - 37.4 °F 100% 30.54 in - NE 1.2 mph - N/A   Mist
6:39 AM 37.4 °F - 37.4 °F 100% 30.54 in 3.7 mi NE 1.2 mph - N/A   Mist
6:45 AM 39.2 °F - 37.4 °F 93% 30.54 in - NNE 1.2 mph - N/A   Mist
6:49 AM 39.2 °F - 39.2 °F 100% 30.54 in 3.1 mi North 2.3 mph - N/A   Mist
6:55 AM 39.2 °F - 39.2 °F 100% 30.54 in 4.3 mi North 1.2 mph - N/A   Mist
7:00 AM 41 °F - 40 °F 97% 30.54 in 5 mi North 2.2 mph - - Fog Fog
7:01 AM 39.2 °F - 39.2 °F 100% 30.54 in 5.0 mi North 1.2 mph - N/A   Mist
7:14 AM 42.8 °F - 42.8 °F 100% 30.54 in 5.6 mi NNE 2.3 mph - N/A   Mist
7:25 AM 44.6 °F - 42.8 °F 93% 30.54 in 4.3 mi NNE 2.3 mph - N/A   Mist
7:29 AM 44.6 °F - 42.8 °F 93% 30.54 in 5.0 mi North 2.3 mph - N/A   Mist
7:42 AM 46.4 °F - 44.6 °F 93% 30.54 in 6.2 mi NNE 2.3 mph - N/A   Unknown
7:55 AM 46.4 °F - 44.6 °F 93% 30.54 in 6.2 mi NE 2.3 mph - N/A   Unknown
8:00 AM 48 °F - 45 °F 84% 30.54 in 8 mi NNE 2.2 mph - -   Partly Cloudy
8:14 AM 48.2 °F - 44.6 °F 87% 30.54 in 6.2 mi NNE 2.3 mph - N/A   Partly Cloudy
8:25 AM 50.0 °F - 44.6 °F 82% 30.54 in 6.2 mi NNE 3.5 mph - N/A   Unknown
8:55 AM 51.8 °F - 44.6 °F 76% 30.54 in 6.2 mi NNE 3.5 mph - N/A   Unknown
9:00 AM 52 °F - 46 °F 71% 30.55 in 12 mi NNE 4.5 mph - -  
9:25 AM 53.6 °F - 44.6 °F 72% 30.54 in 6.2 mi NNE 3.5 mph - N/A   Unknown
9:55 AM 53.6 °F - 42.8 °F 67% 30.51 in 6.2 mi NE 5.8 mph - N/A   Unknown
10:00 AM 54 °F - 43 °F 56% 30.54 in 19 mi NE 4.5 mph - -   Scattered Clouds
10:25 AM 55.4 °F - 42.8 °F 63% 30.51 in 6.2 mi NE 4.6 mph - N/A   Partly Cloudy
10:55 AM 55.4 °F - 42.8 °F 63% 30.51 in 6.2 mi NNE 4.6 mph - N/A   Partly Cloudy
11:00 AM 56 °F - 43 °F 51% 30.53 in 17 mi North 4.5 mph - -   Scattered Clouds
11:17 AM 57.2 °F - 41.0 °F 55% 30.51 in 6.2 mi NNE 4.6 mph - N/A   Unknown
11:25 AM 57.2 °F - 41.0 °F 55% 30.51 in 6.2 mi North 5.8 mph - N/A   Partly Cloudy
11:55 AM 57.2 °F - 41.0 °F 55% 30.51 in 6.2 mi NNE 5.8 mph - N/A   Unknown
12:00 PM 59 °F - 43 °F 45% 30.51 in 19 mi NE 4.5 mph - -  
12:25 PM 59.0 °F - 41.0 °F 51% 30.48 in 6.2 mi NE 5.8 mph - N/A   Unknown
12:32 PM 59.0 °F - 44.6 °F 59% 30.48 in 6.2 mi NNE 5.8 mph - N/A   Partly Cloudy
12:55 PM 59.0 °F - 41.0 °F 51% 30.48 in 6.2 mi NE 5.8 mph - N/A   Partly Cloudy
1:00 PM 60 °F - 42 °F 41% 30.49 in 16 mi NNE 6.7 mph - -   Scattered Clouds
1:25 PM 60.8 °F - 44.6 °F 55% 30.48 in 6.2 mi North 4.6 mph - N/A   Partly Cloudy
1:55 PM 62.6 °F - 44.6 °F 52% 30.45 in 6.2 mi NNW 5.8 mph - N/A   Unknown
2:00 PM 63 °F - 45 °F 40% 30.47 in 19 mi NNW 4.5 mph - -   Partly Cloudy
2:25 PM 62.6 °F - 41.0 °F 45% 30.45 in 6.2 mi NE 6.9 mph - N/A   Unknown
2:55 PM 62.6 °F - 39.2 °F 42% 30.42 in 6.2 mi North 5.8 mph - N/A   Partly Cloudy
3:00 PM 63 °F - 40 °F 32% 30.44 in 22 mi North 6.7 mph - -   Scattered Clouds
3:25 PM 64.4 °F - 39.2 °F 40% 30.42 in 6.2 mi NE 6.9 mph - N/A   Unknown
3:47 PM 64.4 °F - 35.6 °F 34% 30.42 in 6.2 mi NNE 8.1 mph - N/A   Unknown
3:55 PM 64.4 °F - 37.4 °F 37% 30.42 in 6.2 mi North 5.8 mph - N/A   Unknown
4:00 PM 64 °F - 37 °F 25% 30.42 in 19 mi NNE 6.7 mph - -  
4:25 PM 64.4 °F - 37.4 °F 37% 30.39 in 6.2 mi NNE 5.8 mph - N/A   Unknown
4:55 PM 66.2 °F - 39.2 °F 37% 30.39 in 6.2 mi NE 6.9 mph - N/A   Unknown
5:00 PM 65 °F - 38 °F 25% 30.40 in 22 mi ENE 8.9 mph - -  
5:25 PM 64.4 °F - 35.6 °F 34% 30.36 in 6.2 mi NE 10.4 mph - N/A   Unknown
5:55 PM 66.2 °F - 37.4 °F 35% 30.36 in 6.2 mi NE 6.9 mph - N/A   Unknown
6:00 PM 65 °F - 37 °F 24% 30.38 in 22 mi NE 6.7 mph - -  
6:25 PM 64.4 °F - 37.4 °F 37% 30.36 in 6.2 mi NE 8.1 mph - N/A   Partly Cloudy
6:55 PM 64.4 °F - 41.0 °F 42% 30.36 in 6.2 mi NE 8.1 mph - N/A   Unknown
7:00 PM 64 °F - 41 °F 31% 30.37 in 22 mi ENE 8.9 mph - -  
7:25 PM 64.4 °F - 42.8 °F 45% 30.36 in 6.2 mi NE 6.9 mph - N/A   Unknown
7:55 PM 62.6 °F - 44.6 °F 52% 30.33 in 6.2 mi NE 6.9 mph - N/A   Partly Cloudy
8:00 PM 62 °F - 44 °F 41% 30.35 in 25 mi NE 6.7 mph - -   Partly Cloudy
8:25 PM 60.8 °F - 44.6 °F 55% 30.33 in 6.2 mi NE 4.6 mph - N/A   Unknown
8:55 PM 59.0 °F - 42.8 °F 55% 30.33 in 6.2 mi NNE 4.6 mph - N/A   Unknown
9:00 PM 58 °F - 43 °F 47% 30.35 in 28 mi NNE 4.5 mph - -   Scattered Clouds
9:25 PM 53.6 °F - 44.6 °F 72% 30.33 in 6.2 mi ENE 2.3 mph - N/A   Unknown
9:55 PM 55.4 °F - 44.6 °F 67% 30.33 in 6.2 mi NNW 4.6 mph - N/A   Unknown
10:00 PM 55 °F - 45 °F 60% 30.36 in 22 mi NW 4.5 mph - -  
10:25 PM 55.4 °F - 46.4 °F 72% 30.33 in 6.2 mi NNW 4.6 mph - N/A   Unknown
10:55 PM 53.6 °F - 48.2 °F 82% 30.33 in 6.2 mi North 3.5 mph - N/A   Unknown
11:00 PM 54 °F - 48 °F 72% 30.35 in 12 mi North 4.5 mph - -  
11:25 PM 53.6 °F - 48.2 °F 82% 30.33 in 6.2 mi North 4.6 mph - N/A   Unknown
11:55 PM 53.6 °F - 48.2 °F 82% 30.33 in 6.2 mi North 4.6 mph - N/A   Unknown